Regional Weather Roundup
Issued by NWS

Home | Current Version | Previous Version | Text Only | Print | Product List | Glossary Off
Versions: 1 2 3 4 5 6 7 8 9 10 11 12 13 14 15 16 17 18 19 20 21 22 23 24 25 26 27 28 29 30 31 32 33 34 35 36 37 38 39 40 41 42 43 44 45 46 47 48 49 50

000
ASUS45 KPSR 270210
RWRAZ

ARIZONA REGIONAL HOURLY WEATHER ROUNDUP
NATIONAL WEATHER SERVICE PHOENIX AZ
700 PM MST MON JAN 26 2015

NOTE: FAIR INDICATES FEW OR NO CLOUDS BELOW 12,000 FEET WITH NO
SIGNIFICANT WEATHER AND/OR OBSTRUCTIONS TO VISIBILITY.

AZZ001>003-036-270300-
NORTHWEST ARIZONA

CITY           SKY/WX    TMP DP  RH WIND       PRES   REMARKS
BULLHEAD CITY  CLOUDY    59  52  77 CALM      30.13R
KINGMAN        CLOUDY    53  31  42 E7        30.14S
$$

AZZ004>008-015-016-018-270300-
NORTH CENTRAL ARIZONA

CITY           SKY/WX    TMP DP  RH WIND       PRES   REMARKS
GRAND CANYON   FAIR      43  22  43 SE6       30.28R
PRESCOTT       CLOUDY    53  25  33 SE3       30.21R
FLAGSTAFF      CLOUDY    41  25  53 NE3       30.31R
PAYSON         CLOUDY    52  28  40 CALM      30.24R
$$

AZZ009>014-017-270300-
NORTHEAST ARIZONA

CITY           SKY/WX    TMP DP  RH WIND       PRES   REMARKS
WINSLOW        FAIR      42  30  62 SW6       30.26R
SAINT JOHNS    FAIR      47  26  44 S3        30.27R
WINDOW ROCK    FAIR      45  25  45 E7        30.33R
SHOW LOW       FAIR      39  27  60 CALM      30.31S
$$

AZZ023-270300-
GREATER PHOENIX AREA

CITY           SKY/WX    TMP DP  RH WIND       PRES   REMARKS
PHOENIX        CLOUDY    64  33  31 SW3       30.09R
BUCKEYE          N/A     55  46  71 W3        30.12R
GLENDALE       CLOUDY    63  37  39 MISG      30.11R
LUKE AFB       NOT AVBL
DEER VALLEY    CLOUDY    65  28  24 CALM      30.09R
SCOTTSDALE     CLOUDY    65  30  27 CALM      30.11R
MESA-FALCON    CLOUDY    63  30  29 CALM      30.10R
MESA-GATEWAY   CLOUDY    61  36  39 VRB3      30.12R
CHANDLER       CLOUDY    63  34  34 S6        30.11R
$$

AZZ027-028-270300-
SOUTHWEST MARICOPA COUNTY AND PINAL COUNTY

CITY           SKY/WX    TMP DP  RH WIND       PRES   REMARKS
CASA GRANDE    CLOUDY    61  34  36 CALM      30.13R
GILA BEND      LGT RAIN  54  51  87 N2        30.11S
$$

AZZ503-504-507>509-270300-
SOUTHEAST ARIZONA

CITY           SKY/WX    TMP DP  RH WIND       PRES   REMARKS
TUCSON         CLOUDY    62  33  33 NW5       30.15R
DAVIS-MONTHAN  FAIR      61  41  48 NW6       30.12R
RYAN FIELD       N/A     59  37  44 CALM      30.15R
NOGALES        CLOUDY    60  45  57 W3        30.16R
SIERRA VISTA   MOCLDY    55  27  33 S6        30.20R
DOUGLAS        CLOUDY    57  28  33 E6        30.20R
SAFFORD        FAIR      57  26  30 SE6       30.19R
$$

AZZ020-021-025-026-031-270300-
SOUTHWEST ARIZONA

CITY           SKY/WX    TMP DP  RH WIND       PRES   REMARKS
YUMA           CLOUDY    57  49  74 E17       30.09R
$$

CAZ031-033-041-043-047-048-061-270300-
SOUTHERN CALIFORNIA

CITY           SKY/WX    TMP DP  RH WIND       PRES   REMARKS
DOWNTOWN L.A.  LGT RAIN  59  51  75 E3        30.06S
L.A. AIRPORT   LGT RAIN  59  54  83 E7        30.06F
SAN DIEGO      MOCLDY    62  50  64 N3        30.06R
BURBANK        LGT RAIN  57  51  80 S3        30.05F
ONTARIO        LGT RAIN  59  55  87 S3        30.05F
RIVERSIDE      CLOUDY    57  55  93 S3        30.06S
PALM SPRINGS   LGT RAIN  58  54  86 VRB5      30.11R
EL CENTRO NAS  CLOUDY    57  56  96 NW5       30.10R
IMPERIAL       CLOUDY    57  55  93 NW5       30.09R
BLYTHE         LGT RAIN  55  52  89 N8        30.11S
NEEDLES        LGT RAIN  61  49  64 W9        30.11R
$$

NVZ020-UTZ003-270300-
SOUTHERN NEVADA-UTAH

CITY           SKY/WX    TMP DP  RH WIND       PRES   REMARKS
LAS VEGAS      LGT RAIN  59  46  62 SW9       30.08R
SALT LAKE CITY FAIR      38  33  82 CALM      30.24R
$$

NMZ009-TXZ055-270300-
NEW MEXICO-WEST TEXAS

CITY           SKY/WX    TMP DP  RH WIND       PRES   REMARKS
ALBUQUERQUE    PTCLDY    53  26  35 N6        30.33R
EL PASO        CLOUDY    55  29  36 N9        30.27R
$$


........................KEY........................
SKY/WX - SKY CONDITION/WEATHER
TMP    - TEMPERATURE IN FAHRENHEIT
DP     - DEW POINT IN FAHRENHEIT
RH     - RELATIVE HUMIDITY IN PERCENT
WIND   - DIRECTION AND SPEED IN MILES PER HOUR (MPH)
VRB    - VARIABLE WIND DIRECTION
PRES   - MEAN SEA LEVEL PRESSURE IN INCHES OF MERCURY
         F - FALLING PRESSURE   R - RISING PRESSURE
         S - STEADY PRESSURE
VSB    - VISIBILITY IN MILES
HX     - HEAT INDEX IN FAHRENHEIT
WCI    - WIND CHILL INDEX IN FAHRENHEIT
TC     - TEMPERATURE IN CELSIUS WHICH IS ALSO KNOWN AS
         TEMPERATURE IN CENTIGRADE
AFB    - AIR FORCE BASE
         LUKE AFB IS LUKE AIR FORCE BASE
         DAVIS-MONTHAN IS DAVIS-MONTHAN AIR FORCE BASE
NAS    - NAVAL AIR STATION
         EL CENTRO NAS IS EL CENTRO NAVAL AIR STATION
N/A    - NOT AVAILABLE



USA.gov is the U.S. government's official web portal to all federal, state and local government web resources and services.